Location: Ebersheim
(48.3033°N, 7.4991°E)
Time: 20:08:42
(UTC+00:00)

Ariane Rocket - Pass Details

Date: 27 February 2020
Orbit: 759 x 771 km, 98.7° (Epoch: 30 March)

Event Time Altitude Azimuth Distance (km) Brightness Sun altitude
Rises 17:47:00 0° 136° (SE) 3,235 5.9 -6.9°
Reaches altitude 10° 17:49:28 10° 127° (SE) 2,312 5.1 -7.3°
Maximum altitude 17:54:01 34° 64° (ENE) 1,258 3.7 -8.1°
Drops below altitude 10° 17:58:35 10° 1° (N) 2,325 5.5 -8.8°
Sets 18:01:04 0° 353° (N) 3,255 6.3 -9.3°
